TimeCDT,TemperatureF,Dew PointF,Humidity,Sea Level PressureIn,VisibilityMPH,Wind Direction,Wind SpeedMPH,Gust SpeedMPH,PrecipitationIn,Events,Conditions,WindDirDegrees,DateUTC
12:52 AM,53.1,42.1,66,29.83,10.0,NW,5.8,-,N/A,,Overcast,310,2012-10-09 05:52:00
1:52 AM,48.9,43.0,80,29.82,10.0,South,3.5,-,0.00,,Mostly Cloudy,170,2012-10-09 06:52:00
2:52 AM,46.0,41.0,83,29.82,10.0,Calm,Calm,-,N/A,,Mostly Cloudy,0,2012-10-09 07:52:00
3:52 AM,46.0,42.1,86,29.82,10.0,NNW,4.6,-,N/A,,Clear,340,2012-10-09 08:52:00
4:52 AM,46.0,41.0,83,29.84,10.0,West,4.6,-,N/A,,Mostly Cloudy,270,2012-10-09 09:52:00
5:52 AM,51.8,44.6,76,29.83,10.0,North,9.2,-,N/A,,Scattered Clouds,350,2012-10-09 10:52:00
6:52 AM,50.0,44.6,82,29.86,10.0,NNW,9.2,-,N/A,,Scattered Clouds,330,2012-10-09 11:52:00
7:52 AM,50.0,44.1,80,29.88,10.0,NNW,15.0,-,N/A,,Clear,330,2012-10-09 12:52:00
8:52 AM,51.8,42.8,71,29.91,10.0,NW,17.3,26.5,N/A,,Overcast,320,2012-10-09 13:52:00
8:54 AM,51.8,42.8,71,29.91,10.0,NNW,23.0,26.5,N/A,,Overcast,330,2012-10-09 13:54:00
9:52 AM,48.9,37.0,64,29.94,10.0,NNW,21.9,-,0.00,,Overcast,330,2012-10-09 14:52:00
10:52 AM,50.0,34.0,54,29.97,10.0,NW,13.8,-,N/A,,Mostly Cloudy,310,2012-10-09 15:52:00
11:52 AM,48.9,28.9,46,29.96,10.0,NW,25.3,32.2,N/A,,Mostly Cloudy,320,2012-10-09 16:52:00
12:52 PM,50.0,30.0,46,29.98,10.0,NW,15.0,24.2,N/A,,Partly Cloudy,320,2012-10-09 17:52:00
1:52 PM,51.1,26.1,38,29.97,10.0,NW,15.0,28.8,N/A,,Scattered Clouds,310,2012-10-09 18:52:00
2:52 PM,54.0,23.0,30,29.96,10.0,NNW,21.9,28.8,N/A,,Clear,330,2012-10-09 19:52:00
3:52 PM,54.0,23.0,30,29.97,10.0,NW,20.7,31.1,N/A,,Clear,310,2012-10-09 20:52:00
4:52 PM,54.0,26.1,34,29.99,10.0,NNW,27.6,38.0,N/A,,Clear,330,2012-10-09 21:52:00
5:52 PM,50.0,27.0,41,30.02,10.0,NNW,20.7,27.6,N/A,,Clear,340,2012-10-09 22:52:00
6:52 PM,46.9,26.1,44,30.06,10.0,North,11.5,-,N/A,,Clear,350,2012-10-09 23:52:00
7:52 PM,44.1,26.1,49,30.09,10.0,NNW,9.2,-,N/A,,Partly Cloudy,340,2012-10-10 00:52:00
8:52 PM,37.9,24.1,57,30.12,10.0,NNW,4.6,-,N/A,,Clear,330,2012-10-10 01:52:00
9:52 PM,32.0,24.1,73,30.14,10.0,West,4.6,-,N/A,,Clear,260,2012-10-10 02:52:00
10:52 PM,33.1,25.0,72,30.15,10.0,West,6.9,-,N/A,,Clear,280,2012-10-10 03:52:00
11:52 PM,30.9,23.0,72,30.17,10.0,West,5.8,-,N/A,,Clear,280,2012-10-10 04:52:00